Waarnemingen

Advertentie
Mijn weer
Twenthe, Nederland (6290): temperatuur & dauwpunt: 23.03.2017 01:00:00 - 29.03.2017 01:00:00 (CEST)Twenthe, Nederland (6290): temperatuur 5cm: 23.03.2017 01:00:00 - 29.03.2017 01:00:00 (CEST)Twenthe, Nederland (6290): windsnelheid & windstoten: 23.03.2017 01:00:00 - 29.03.2017 01:00:00 (CEST)Twenthe, Nederland (6290): windrichting: 23.03.2017 01:00:00 - 29.03.2017 01:00:00 (CEST)Twenthe, Nederland (6290): luchtdruk: 23.03.2017 01:00:00 - 29.03.2017 01:00:00 (CEST)Twenthe, Nederland (6290): zicht: 23.03.2017 01:00:00 - 29.03.2017 01:00:00 (CEST)Twenthe, Nederland (6290): neerslag: 23.03.2017 01:00:00 - 29.03.2017 01:00:00 (CEST)
Datum & Tijd tt [°C] td [°C] tt 5cm [°C] ff [km/u] ff [kn] fx [km/u] fx [kn] dd ppp [hPa] vv [km] rr [mm]
29.03.2017 01:00:00 - - - - - - - - - - -
29.03.2017 00:00:00 - - - - - - - - - - -
28.03.2017 23:00:00 - - - - - - - - - - -
28.03.2017 22:00:00 - - - - - - - - - - -
28.03.2017 21:00:00 - - - - - - - - - - -
28.03.2017 20:00:00 - - - - - - - - - - -
28.03.2017 19:00:00 - - - - - - - - - - -
28.03.2017 18:00:00 - - - - - - - - - - -
28.03.2017 17:00:00 - - - - - - - - - - -
28.03.2017 16:00:00 - - - - - - - - - - -
28.03.2017 15:00:00 - - - - - - - - - - -
28.03.2017 14:00:00 - - - - - - - - - - -
28.03.2017 13:00:00 - - - - - - - - - - -
28.03.2017 12:00:00 - - - - - - - - - - -
28.03.2017 11:00:00 - - - - - - - - - - -
28.03.2017 10:00:00 11,7 1,5 12,6 11 6 14 8 Z 1020,7 35 0,0
28.03.2017 09:00:00 9,5 1,7 7,8 7 4 11 6 Z 1020,6 35 0,0
28.03.2017 08:00:00 3,4 -0,4 -1,1 4 2 11 6 Z 1020,4 41 0,0
28.03.2017 07:00:00 3,2 -0,6 -3,7 4 2 7 4 ZO 1020,1 44 0,0
28.03.2017 06:00:00 1,9 0,5 -4,0 4 2 4 2 O 1020,2 28 0,0
28.03.2017 05:00:00 1,7 0,2 -3,7 4 2 7 4 ZO 1020,3 31 0,0
28.03.2017 04:00:00 1,9 -0,5 -3,9 4 2 7 4 OZO 1020,5 34 0,0
28.03.2017 03:00:00 2,1 0,2 -3,2 4 2 7 4 O 1021,2 35 0,0
28.03.2017 02:00:00 3,5 0,4 -2,6 4 2 11 6 O 1021,5 38 0,0
28.03.2017 01:00:00 4,0 1,3 -2,6 4 2 7 4 ZO 1021,5 40 0,0
28.03.2017 00:00:00 4,8 1,5 -0,9 4 2 7 4 OZO 1021,8 46 0,0
27.03.2017 23:00:00 4,6 1,5 -0,5 4 2 7 4 ONO 1022,1 48 0,0
27.03.2017 22:00:00 6,9 1,0 0,3 4 2 7 4 NW 1022,0 48 0,0
27.03.2017 21:00:00 7,9 0,8 3,9 4 2 14 8 ONO 1021,7 49 0,0
27.03.2017 20:00:00 14,2 -0,7 8,5 4 2 14 8 ONO 1021,7 49 0,0
27.03.2017 19:00:00 16,6 -0,5 15,4 11 6 18 10 O 1021,5 44 0,0
27.03.2017 18:00:00 17,3 -0,9 17,7 11 6 22 12 OZO 1021,9 39 0,0
27.03.2017 17:00:00 17,4 -1,6 19,3 11 6 22 12 ZO 1022,4 33 0,0
27.03.2017 16:00:00 17,9 -0,7 19,8 14 8 22 12 O 1022,9 41 0,0
27.03.2017 15:00:00 17,6 -0,3 20,3 11 6 22 12 ZO 1023,6 38 0,0
27.03.2017 14:00:00 16,7 -0,1 19,9 14 8 29 16 ZO 1024,4 32 0,0
27.03.2017 13:00:00 16,1 0,3 19,0 14 8 25 14 ZO 1024,9 37 0,0
27.03.2017 12:00:00 14,8 1,8 17,4 11 6 18 10 OZO 1025,3 35 0,0
27.03.2017 11:00:00 12,9 3,2 14,9 7 4 14 8 O 1025,6 30 0,0
27.03.2017 10:00:00 10,0 2,8 11,2 11 6 14 8 ZO 1025,7 29 0,0
27.03.2017 09:00:00 7,0 2,3 6,7 7 4 14 8 ZO 1025,6 23 0,0
27.03.2017 08:00:00 4,4 1,4 0,8 11 6 14 8 OZO 1025,3 18 0,0
27.03.2017 07:00:00 2,5 0,9 -2,2 4 2 14 8 ONO 1025,0 14 0,0
27.03.2017 06:00:00 3,3 1,2 -1,2 4 2 11 6 O 1024,7 15 0,0
27.03.2017 05:00:00 2,9 1,4 -0,6 4 2 11 6 NO 1024,6 12 0,0
27.03.2017 04:00:00 3,9 1,5 0,1 7 4 14 8 O 1025,1 14 0,0
27.03.2017 03:00:00 2,8 1,5 0,2 7 4 14 8 NNO 1025,2 12 0,0
27.03.2017 02:00:00 4,5 2,3 2,7 7 4 18 10 NO 1025,4 14 0,0
27.03.2017 01:00:00 6,3 3,4 4,9 11 6 18 10 ONO 1025,5 15 0,0
27.03.2017 00:00:00 6,2 3,4 4,4 11 6 18 10 ONO 1025,7 14 0,0
26.03.2017 23:00:00 7,7 3,7 5,6 11 6 14 8 ONO 1025,7 16 0,0
26.03.2017 22:00:00 7,3 3,5 4,5 7 4 18 10 NO 1025,8 14 0,0
26.03.2017 21:00:00 8,9 3,4 6,4 11 6 18 10 ONO 1025,3 21 0,0
26.03.2017 20:00:00 9,5 2,5 7,4 11 6 22 12 NO 1025,0 34 0,0
26.03.2017 19:00:00 11,8 2,5 11,3 14 8 25 14 ONO 1024,9 35 0,0
26.03.2017 18:00:00 12,5 3,3 13,3 22 12 29 16 NO 1024,9 30 0,0
26.03.2017 17:00:00 13,2 3,8 14,7 14 8 25 14 NO 1025,0 25 0,0
26.03.2017 16:00:00 13,3 4,2 15,6 14 8 29 16 ONO 1025,3 27 0,0
26.03.2017 15:00:00 12,6 4,3 15,3 11 6 22 12 ONO 1025,5 23 0,0
26.03.2017 14:00:00 11,7 4,3 15,1 11 6 22 12 NNO 1026,1 21 0,0
26.03.2017 13:00:00 11,3 4,8 15,0 11 6 22 12 OZO 1026,4 21 0,0
26.03.2017 12:00:00 9,8 4,9 13,2 7 4 18 10 OZO 1026,6 17 0,0
26.03.2017 11:00:00 7,3 4,5 9,4 11 6 18 10 OZO 1026,7 11 0,0
26.03.2017 10:00:00 6,2 4,2 7,3 11 6 18 10 NO 1026,9 9 0,0
26.03.2017 09:00:00 5,8 3,8 6,1 7 4 18 10 ONO 1026,7 15 0,0
26.03.2017 08:00:00 5,7 3,8 5,6 11 6 22 12 ONO 1026,3 13 0,0
26.03.2017 07:00:00 5,5 4,6 5,4 11 6 22 12 ONO 1026,0 7 0,0
26.03.2017 06:00:00 5,1 4,3 4,8 11 6 18 10 NO 1026,0 7 0,0
26.03.2017 05:00:00 4,5 3,7 4,4 11 6 25 14 NO 1026,0 9 0,0
26.03.2017 04:00:00 3,8 2,6 2,8 14 8 22 12 NO 1026,2 14 0,0
26.03.2017 03:00:00 2,8 1,2 0,8 11 6 14 8 NNO 1026,5 25 0,0
26.03.2017 02:00:00 3,5 2,1 1,0 11 6 14 8 NNO 1026,8 25 0,0
26.03.2017 01:00:00 4,7 2,5 0,7 7 4 14 8 NNO 1027,2 31 0,0
26.03.2017 00:00:00 5,3 2,3 3,8 11 6 25 14 NNO 1027,4 36 0,0
25.03.2017 23:00:00 6,6 2,0 5,4 18 10 25 14 NNO 1027,6 44 0,0
25.03.2017 22:00:00 7,0 0,7 3,8 14 8 18 10 N 1027,5 43 0,0
25.03.2017 21:00:00 7,9 -1,1 3,4 7 4 18 10 NNO 1027,3 48 0,0
25.03.2017 20:00:00 8,5 -1,5 6,0 11 6 32 18 NNO 1026,9 48 0,0
25.03.2017 19:00:00 11,7 -2,2 10,9 18 10 32 18 NNO 1026,9 46 0,0
25.03.2017 18:00:00 13,2 -3,2 13,6 22 12 32 18 NNO 1027,2 34 0,0
25.03.2017 17:00:00 13,9 -4,8 15,3 22 12 36 19 NO 1028,0 40 0,0
25.03.2017 16:00:00 14,3 -4,7 15,8 22 12 40 21 N 1028,8 24 0,0
25.03.2017 15:00:00 14,2 -5,3 16,5 22 12 36 19 NO 1029,8 37 0,0
25.03.2017 14:00:00 13,4 -7,0 16,0 14 8 29 16 NNO 1030,7 36 0,0
25.03.2017 13:00:00 12,8 -2,7 15,5 14 8 25 14 NNO 1031,4 39 0,0
25.03.2017 12:00:00 11,7 -1,7 14,6 14 8 22 12 NNO 1032,1 33 0,0
25.03.2017 11:00:00 10,6 -2,2 12,6 14 8 18 10 NO 1032,5 35 0,0
25.03.2017 10:00:00 7,6 -0,4 9,0 11 6 14 8 NO 1032,5 33 0,0
25.03.2017 09:00:00 4,8 0,5 2,0 4 2 7 4 NNO 1032,5 23 0,0
25.03.2017 08:00:00 0,4 -1,7 -2,5 4 2 14 8 N 1032,5 21 0,0
25.03.2017 07:00:00 1,5 -1,4 -2,2 7 4 11 6 NO 1032,2 25 0,0
25.03.2017 06:00:00 2,1 -1,2 -0,8 11 6 14 8 NO 1032,4 25 0,0
25.03.2017 05:00:00 1,9 -1,2 -0,4 11 6 14 8 NO 1032,5 25 0,0
25.03.2017 04:00:00 2,9 -0,9 1,4 14 8 22 12 NO 1032,9 37 0,0
25.03.2017 03:00:00 3,9 -0,5 2,2 14 8 22 12 NO 1033,3 36 0,0
25.03.2017 02:00:00 4,6 0,4 2,7 14 8 22 12 NO 1033,4 33 0,0
25.03.2017 01:00:00 4,9 1,1 3,0 18 10 22 12 NNO 1033,3 27 0,0
25.03.2017 00:00:00 4,6 0,8 2,7 14 8 22 12 NNO 1033,1 32 0,0
24.03.2017 23:00:00 5,5 0,3 2,0 14 8 18 10 NO 1032,9 47 0,0
24.03.2017 22:00:00 6,9 0,7 1,0 11 6 14 8 NO 1032,5 50 0,0
24.03.2017 21:00:00 8,9 0,9 3,4 7 4 14 8 ONO 1031,9 47 0,0
24.03.2017 20:00:00 8,8 0,8 7,0 11 6 25 14 NO 1031,4 47 0,0
24.03.2017 19:00:00 11,6 1,4 11,0 14 8 36 19 NO 1030,7 37 0,0
24.03.2017 18:00:00 12,6 0,8 12,9 25 14 40 21 NO 1030,7 35 0,0
24.03.2017 17:00:00 13,1 2,0 14,0 25 14 36 19 NO 1030,2 36 0,0
24.03.2017 16:00:00 13,0 2,1 14,9 22 12 36 19 NO 1030,1 22 0,0
24.03.2017 15:00:00 12,8 2,1 15,1 22 12 32 18 NO 1030,4 26 0,0
24.03.2017 14:00:00 12,6 3,0 14,9 14 8 29 16 O 1030,9 23 0,0
24.03.2017 13:00:00 11,1 2,2 14,0 18 10 32 18 O 1031,6 24 0,0
24.03.2017 12:00:00 10,4 2,3 12,9 14 8 40 21 O 1031,0 27 0,0
24.03.2017 11:00:00 9,0 2,3 10,8 18 10 36 19 ONO 1030,2 26 0,0
24.03.2017 10:00:00 7,0 2,9 7,7 18 10 32 18 ONO 1028,7 19 0,0
24.03.2017 09:00:00 4,9 2,6 5,0 18 10 29 16 ONO 1028,7 14 0,0
24.03.2017 08:00:00 4,5 2,9 4,5 18 10 25 14 NO 1028,7 12 0,0
24.03.2017 07:00:00 4,8 3,1 4,4 18 10 25 14 NO 1027,6 13 0,0
24.03.2017 06:00:00 5,6 3,4 5,3 14 8 18 10 NO 1027,5 14 0,0
24.03.2017 05:00:00 6,9 3,5 6,5 7 4 25 14 ONO 1026,7 16 0,0
24.03.2017 04:00:00 7,2 3,7 6,9 14 8 29 16 ONO 1025,7 13 0,0
24.03.2017 03:00:00 7,4 3,7 6,9 14 8 29 16 ONO 1025,8 13 0,0
24.03.2017 02:00:00 7,3 3,8 6,7 14 8 25 14 NO 1025,1 12 0,0
24.03.2017 01:00:00 6,8 3,7 6,2 14 8 25 14 NO 1024,2 11 0,0
24.03.2017 00:00:00 6,5 3,6 5,5 18 10 32 18 NO 1023,6 10 0,0
23.03.2017 23:00:00 6,8 3,6 5,6 18 10 29 16 NO 1022,8 11 0,0
23.03.2017 22:00:00 6,6 3,7 5,0 14 8 25 14 NO 1022,3 12 0,0
23.03.2017 21:00:00 7,1 3,7 6,0 18 10 29 16 NO 1021,4 17 0,0
23.03.2017 20:00:00 8,6 4,2 7,4 18 10 25 14 NO 1020,7 18 0,0
23.03.2017 19:00:00 10,1 4,2 9,6 18 10 29 16 NO 1019,7 23 0,0
23.03.2017 18:00:00 11,5 4,3 11,1 14 8 32 18 ONO 1018,7 26 0,0
23.03.2017 17:00:00 11,7 4,1 12,5 22 12 36 19 NO 1018,0 27 0,0
23.03.2017 16:00:00 12,0 4,0 13,5 18 10 32 18 ONO 1017,7 31 0,0
23.03.2017 15:00:00 11,5 4,5 12,6 22 12 29 16 NO 1018,0 27 0,0
23.03.2017 14:00:00 11,6 4,4 12,0 14 8 29 16 NO 1017,8 27 0,0
23.03.2017 13:00:00 11,0 4,5 13,2 14 8 25 14 NO 1017,6 22 0,0
23.03.2017 12:00:00 10,9 4,5 13,8 14 8 25 14 NO 1017,4 18 0,0
23.03.2017 11:00:00 9,6 3,6 12,3 14 8 22 12 O 1017,3 23 0,0
23.03.2017 10:00:00 7,6 3,0 9,3 11 6 18 10 ONO 1017,4 29 0,0
23.03.2017 09:00:00 5,5 2,2 5,2 14 8 22 12 NO 1016,9 24 0,0
23.03.2017 08:00:00 5,4 1,8 4,9 11 6 18 10 ONO 1016,4 25 0,0
23.03.2017 07:00:00 4,9 1,5 4,2 14 8 18 10 ONO 1015,9 24 0,0
23.03.2017 06:00:00 4,0 1,4 0,7 7 4 14 8 ONO 1016,0 22 0,0
23.03.2017 05:00:00 5,3 1,5 3,8 11 6 22 12 ONO 1015,0 25 0,0
23.03.2017 04:00:00 5,8 1,3 4,6 11 6 18 10 ONO 1015,5 32 0,0
23.03.2017 03:00:00 4,6 0,6 0,0 7 4 11 6 NO 1015,9 37 0,0
23.03.2017 02:00:00 5,4 0,4 3,1 11 6 18 10 NO 1015,4 38 0,0
23.03.2017 01:00:00 - - - - - - - - - - -

tt = temperatuur
td = dauwpunt
tt 5cm = temperatuur 5cm
ff = windsnelheid
fx = windstoten
dd = windrichting
ppp = luchtdruk
vv = zicht
rr = neerslag

Weerstations in de omgeving